Kedves Pilóták, Oktatók, Növendékek!

Az alábbi menüpontban szeretnénk összefoglalni néhány fontos és hasznos információt, linket, amely segíthet a repülések megtervezésében.

Ha bármilyen javaslatod van a tartalommal kapcsolatban, kérlek Ez az e-mail-cím a szpemrobotok elleni védelem alatt áll. Megtekintéséhez engedélyeznie kell a JavaScript használatát.meg nekünk.

 

Jó leszállást!

Repüléssel kapcsolatos hírek

IHO.hu - - Repülés RSS

Felhőkép 

Felhőkép

Széltérkép

Széltérkép

Győr-Pér Repülőtér

Élő webkamera kép

 Nagyobb kép

Győr-Pér Repülőtér

[Source: ADDS]
METAR
LHPR 230115Z AUTO 25006KT 230V290 CAVOK 18/17 Q1010 RMK BLU =
TAF
LHPR 221715Z 2218/2303 30007KT CAVOK PROB30 TEMPO 2218/2302 6000 SHRA SCT050CB BKN080 =
SR / SS: 03:15 / 18:34 UTC (Napkelte / Napnyugta 2018-07-23)

Kapcsolat

Telephely:     9099 Pér, Repülõtér

Klubhelyiség: 9021 Gyõr, Városház tér 3.

E-mail: info@aeroclub-gyor.hu

Telefon: 06-20-777-9106

Adószám: 19113832-2-08

  
Joomla űrlapépítő by JoomlaShine
JSN Metro template designed by JoomlaShine.com